| time (UTC) | temp C | wind direction | speed KPH | gust KPH | rain 1hr cm | rain 24hr cm | rain mn cm | humidity % | barometer mb |
| 20260507180210 | 10 | 360 | 0.0 | 0.0 | 0.00 | 0.00 | 0.61 | 80 | |
| 20260507173210 | 11 | 360 | 0.0 | 0.0 | 0.00 | 0.00 | 0.61 | 76 | |
| 20260507170210 | 11 | 360 | 0.0 | 0.0 | 0.00 | 0.00 | 0.61 | 73 | |
| 20260507163209 | 11 | 360 | 0.0 | 0.0 | 0.00 | 0.00 | 0.61 | 73 | |
| 20260507160211 | 12 | 360 | 0.0 | 0.0 | 0.00 | 0.00 | 0.61 | 74 | |
| 20260507153210 | 12 | 360 | 0.0 | 0.0 | 0.00 | 0.00 | 0.61 | 72 | |
| 20260507150210 | 12 | 360 | 0.0 | 0.0 | 0.00 | 0.00 | 0.61 | 69 | |
| 20260507143212 | 12 | 360 | 0.0 | 0.0 | 0.00 | 0.00 | 0.61 | 70 | |
| 20260507140210 | 11 | 360 | 0.0 | 0.0 | 0.00 | 0.00 | 0.61 | 75 | |
| 20260507133210 | 11 | 360 | 0.0 | 0.0 | 0.00 | 0.00 | 0.61 | 78 | |
| 20260507130210 | 11 | 360 | 0.0 | 0.0 | 0.00 | 0.00 | 0.61 | 77 | |
| 20260507123210 | 10 | 360 | 0.0 | 0.0 | 0.00 | 0.00 | 0.61 | 83 | |
| 20260507120211 | 9 | 360 | 0.0 | 0.0 | 0.00 | 0.00 | 0.61 | 85 | |
| 20260507113210 | 10 | 360 | 0.0 | 0.0 | 0.00 | 0.00 | 0.61 | 86 | |
| 20260507110210 | 10 | 360 | 0.0 | 0.0 | 0.00 | 0.00 | 0.61 | 86 | |
| 20260507103216 | 9 | 360 | 0.0 | 0.0 | 0.00 | 0.00 | 0.61 | 87 | |
| 20260507100212 | 8 | 360 | 0.0 | 0.0 | 0.00 | 0.00 | 0.61 | 89 | |
| 20260507093211 | 8 | 360 | 0.0 | 0.0 | 0.00 | 0.00 | 0.61 | 88 | |
| 20260507090211 | 8 | 360 | 0.0 | 0.0 | 0.00 | 0.00 | 0.61 | 89 | |
| 20260507083212 | 9 | 360 | 0.0 | 0.0 | 0.00 | 0.00 | 0.61 | 86 | |
| 20260507080211 | 9 | 360 | 0.0 | 0.0 | 0.00 | 0.00 | 0.61 | 88 | |
| 20260507073212 | 8 | 360 | 0.0 | 0.0 | 0.00 | 0.00 | 0.61 | 92 | |
| 20260507070212 | 8 | 360 | 0.0 | 0.0 | 0.00 | 0.00 | 0.61 | 94 | |
| 20260507063211 | 7 | 360 | 0.0 | 0.0 | 0.00 | 0.00 | 0.61 | 96 | |
| 20260507060211 | 6 | 360 | 0.0 | 0.0 | 0.00 | 0.00 | 0.61 | 95 | |
| 20260507053211 | 6 | 360 | 0.0 | 0.0 | 0.00 | 0.00 | 0.61 | 96 | |
| 20260507050213 | 6 | 360 | 0.0 | 0.0 | 0.00 | 0.00 | 0.53 | 95 | |
| 20260507043211 | 6 | 360 | 0.0 | 0.0 | 0.00 | 0.00 | 0.51 | 95 | |
| 20260507040216 | 6 | 360 | 0.0 | 0.0 | 0.00 | 0.00 | 0.46 | 95 | |
| 20260507033211 | 5 | 360 | 0.0 | 0.0 | 0.00 | 0.00 | 0.43 | 95 | |
| 20260507030211 | 5 | 360 | 0.0 | 0.0 | 0.00 | 0.00 | 0.43 | 95 | |
| 20260507023211 | 5 | 360 | 0.0 | 0.0 | 0.00 | 0.00 | 0.43 | 94 | |
| 20260507020211 | 5 | 360 | 0.0 | 0.0 | 0.00 | 0.00 | 0.43 | 94 | |
| 20260507013212 | 5 | 360 | 0.0 | 0.0 | 0.00 | 0.00 | 0.43 | 94 | |
| 20260507010211 | 5 | 360 | 0.0 | 0.0 | 0.00 | 0.00 | 0.43 | 94 | |
| 20260507003209 | 5 | 360 | 0.0 | 0.0 | 0.00 | 0.00 | 0.43 | 93 | |
| 20260507000209 | 5 | 360 | 0.0 | 0.0 | 0.00 | 0.00 | 0.43 | 94 | |
| 20260506233209 | 6 | 360 | 0.0 | 0.0 | 0.00 | 0.00 | 0.43 | 94 | |
| 20260506230209 | 6 | 360 | 0.0 | 0.0 | 0.00 | 0.00 | 0.43 | 93 | |
| 20260506223209 | 6 | 360 | 0.0 | 0.0 | 0.00 | 0.00 | 0.43 | 94 | |
| 20260506220209 | 6 | 360 | 0.0 | 0.0 | 0.00 | 0.00 | 0.00 | 94 | |
| 20260506213209 | 6 | 360 | 0.0 | 0.0 | 0.00 | 0.00 | 0.43 | 93 | |
| 20260506210210 | 6 | 360 | 0.0 | 0.0 | 0.00 | 0.00 | 0.43 | 92 | |
| 20260506203210 | 7 | 360 | 0.0 | 0.0 | 0.00 | 0.00 | 0.43 | 93 | |
| 20260506200210 | 7 | 360 | 0.0 | 0.0 | 0.00 | 0.00 | 0.43 | 93 | |
| 20260506193215 | 7 | 360 | 0.0 | 0.0 | 0.00 | 0.00 | 0.43 | 92 | |
| 20260506190211 | 7 | 360 | 0.0 | 0.0 | 0.00 | 0.00 | 0.43 | 92 | |
| 20260506183209 | 8 | 360 | 0.0 | 0.0 | 0.00 | 0.00 | 0.43 | 92 |